• In France
  • List of Countries
  • For 7 days
  • Water Temperature
  • Satellite Maps
  • Weather Map
  • Weather Widgets
  • user-avatar
    Login

    Hourly Weather Novokuktovo

    Today, 20 September, Thursday

    Time Temperature Precipitation Wind Pressure Humidity
    00:00 +8°C° 0.2 mm 6 mps 739 mmHg 88%
    01:00 +8°C° 0.2 mm 6 mps 739 mmHg 88%
    02:00 +8°C° 0.1 mm 6 mps 739 mmHg 88%
    03:00 +8°C° 0.1 mm 6 mps 739 mmHg 88%
    04:00 +7°C° 0.1 mm 6 mps 739 mmHg 88%
    05:00 +7°C° 0.1 mm 6 mps 740 mmHg 88%
    06:00 +7°C° 0.1 mm 6 mps 740 mmHg 88%
    07:00 +7°C° 0.1 mm 6 mps 740 mmHg 88%
    08:00 +7°C° 0 mm 6 mps 741 mmHg 87%
    09:00 +7°C° 0 mm 6 mps 741 mmHg 85%
    10:00 +7°C° 0 mm 6 mps 741 mmHg 84%
    11:00 +8°C° 0 mm 6 mps 741 mmHg 82%
    12:00 +8°C° 0 mm 6 mps 742 mmHg 79%
    13:00 +9°C° 0 mm 6 mps 742 mmHg 77%
    14:00 +10°C° 0 mm 6 mps 742 mmHg 74%
    15:00 +10°C° 0 mm 5 mps 742 mmHg 72%
    16:00 +12°C° 0 mm 5 mps 742 mmHg 70%
    17:00 +11°C° 0 mm 4 mps 743 mmHg 72%
    18:00 +10°C° 0 mm 4 mps 743 mmHg 75%
    19:00 +9°C° 0 mm 3 mps 743 mmHg 78%
    20:00 +9°C° 0 mm 3 mps 744 mmHg 79%
    21:00 +8°C° 0 mm 3 mps 744 mmHg 79%
    22:00 +8°C° 0 mm 3 mps 744 mmHg 80%
    23:00 +8°C° 0 mm 3 mps 744 mmHg 81%

    Tomorrow, 21 September, Friday

    Time Temperature Precipitation Wind Pressure Humidity
    00:00 +7°C° 0 mm 3 mps 744 mmHg 81%
    01:00 +7°C° 0 mm 3 mps 744 mmHg 82%
    02:00 +5°C° 0 mm 3 mps 744 mmHg 83%
    03:00 +5°C° 0 mm 3 mps 745 mmHg 85%
    04:00 +4°C° 0 mm 3 mps 745 mmHg 86%
    05:00 +4°C° 0 mm 3 mps 745 mmHg 87%
    06:00 +4°C° 0 mm 3 mps 746 mmHg 87%
    07:00 +4°C° 0 mm 4 mps 746 mmHg 87%
    08:00 +6°C° 0 mm 4 mps 746 mmHg 81%
    09:00 +8°C° 0 mm 4 mps 747 mmHg 75%
    10:00 +9°C° 0 mm 5 mps 747 mmHg 69%
    11:00 +12°C° 0 mm 5 mps 747 mmHg 66%
    12:00 +13°C° 0 mm 5 mps 747 mmHg 63%
    13:00 +14°C° 0 mm 5 mps 748 mmHg 59%
    14:00 +14°C° 0 mm 5 mps 748 mmHg 59%
    15:00 +14°C° 0 mm 4 mps 748 mmHg 58%
    16:00 +14°C° 0 mm 4 mps 748 mmHg 58%
    17:00 +13°C° 0 mm 4 mps 749 mmHg 62%
    18:00 +11°C° 0 mm 3 mps 749 mmHg 67%
    19:00 +10°C° 0 mm 3 mps 749 mmHg 71%
    20:00 +9°C° 0 mm 2 mps 750 mmHg 72%
    21:00 +9°C° 0 mm 2 mps 750 mmHg 72%
    22:00 +8°C° 0 mm 2 mps 750 mmHg 73%
    23:00 +8°C° 0 mm 2 mps 750 mmHg 74%

    Day after tomorrow, 22 September, Saturday

    Time Temperature Precipitation Wind Pressure Humidity
    00:00 +8°C° 0 mm 2 mps 751 mmHg 76%
    01:00 +7°C° 0 mm 2 mps 751 mmHg 78%
    02:00 +7°C° 0 mm 2 mps 751 mmHg 80%
    03:00 +7°C° 0 mm 2 mps 751 mmHg 83%
    04:00 +7°C° 0 mm 2 mps 752 mmHg 86%
    05:00 +8°C° 0 mm 2 mps 752 mmHg 88%
    06:00 +8°C° 0 mm 2 mps 752 mmHg 90%
    07:00 +9°C° 0 mm 2 mps 752 mmHg 93%
    08:00 +10°C° 0 mm 2 mps 752 mmHg 89%
    09:00 +12°C° 0 mm 3 mps 753 mmHg 85%
    10:00 +14°C° 0 mm 3 mps 753 mmHg 81%
    11:00 +16°C° 0 mm 3 mps 753 mmHg 77%
    12:00 +17°C° 0 mm 3 mps 752 mmHg 74%
    13:00 +19°C° 0 mm 3 mps 752 mmHg 70%
    14:00 +18°C° 0 mm 3 mps 752 mmHg 72%
    15:00 +18°C° 0 mm 2 mps 752 mmHg 75%
    16:00 +18°C° 0 mm 2 mps 752 mmHg 77%
    17:00 +17°C° 0 mm 2 mps 752 mmHg 81%
    18:00 +17°C° 0 mm 2 mps 752 mmHg 84%
    19:00 +16°C° 0 mm 2 mps 752 mmHg 88%
    20:00 +14°C° 0 mm 3 mps 752 mmHg 90%
    21:00 +14°C° 0 mm 3 mps 752 mmHg 92%
    22:00 +14°C° 0 mm 3 mps 752 mmHg 93%
    23:00 +13°C° 0 mm 3 mps 752 mmHg 94%

    23 September, Sunday

    Time Temperature Precipitation Wind Pressure Humidity
    00:00 +13°C° 0 mm 3 mps 752 mmHg 94%
    01:00 +13°C° 0 mm 3 mps 752 mmHg 94%
    02:00 +13°C° 0 mm 3 mps 752 mmHg 94%
    03:00 +12°C° 0 mm 3 mps 752 mmHg 94%
    04:00 +12°C° 0 mm 3 mps 752 mmHg 94%
    05:00 +12°C° 0 mm 3 mps 752 mmHg 94%
    06:00 +12°C° 0 mm 3 mps 752 mmHg 94%
    07:00 +12°C° 0 mm 3 mps 752 mmHg 93%
    08:00 +13°C° 0 mm 3 mps 752 mmHg 88%
    09:00 +16°C° 0 mm 3 mps 752 mmHg 82%
    10:00 +18°C° 0 mm 4 mps 751 mmHg 76%
    11:00 +19°C° 0 mm 4 mps 751 mmHg 72%
    12:00 +20°C° 0 mm 4 mps 751 mmHg 68%
    13:00 +21°C° 0 mm 5 mps 751 mmHg 64%
    14:00 +21°C° 0 mm 4 mps 750 mmHg 64%
    15:00 +21°C° 0 mm 4 mps 750 mmHg 64%
    16:00 +21°C° 0 mm 4 mps 750 mmHg 64%
    17:00 +20°C° 0 mm 4 mps 749 mmHg 70%
    18:00 +18°C° 0 mm 3 mps 749 mmHg 76%
    19:00 +17°C° 0 mm 3 mps 749 mmHg 83%
    20:00 +16°C° 0 mm 3 mps 749 mmHg 83%
    21:00 +16°C° 0 mm 3 mps 748 mmHg 84%
    22:00 +14°C° 0 mm 3 mps 748 mmHg 85%
    23:00 +14°C° 0 mm 3 mps 748 mmHg 84%

    24 September, Monday

    Time Temperature Precipitation Wind Pressure Humidity
    00:00 +14°C° 0 mm 4 mps 748 mmHg 83%
    01:00 +13°C° 0 mm 4 mps 747 mmHg 83%
    02:00 +13°C° 0 mm 4 mps 747 mmHg 81%
    03:00 +13°C° 0 mm 4 mps 747 mmHg 79%
    04:00 +13°C° 0 mm 4 mps 746 mmHg 78%
    05:00 +13°C° 0 mm 4 mps 746 mmHg 74%
    06:00 +12°C° 0 mm 5 mps 746 mmHg 71%
    07:00 +12°C° 0 mm 5 mps 745 mmHg 68%
    08:00 +14°C° 0 mm 5 mps 745 mmHg 61%
    09:00 +15°C° 0 mm 6 mps 744 mmHg 54%
    10:00 +17°C° 0 mm 7 mps 744 mmHg 46%
    11:00 +18°C° 0 mm 7 mps 743 mmHg 44%
    12:00 +20°C° 0 mm 7 mps 743 mmHg 41%
    13:00 +21°C° 0 mm 8 mps 743 mmHg 39%
    14:00 +21°C° 0 mm 7 mps 742 mmHg 42%
    15:00 +21°C° 0 mm 5 mps 742 mmHg 45%
    16:00 +21°C° 0 mm 4 mps 742 mmHg 48%
    17:00 +19°C° 0.1 mm 4 mps 742 mmHg 55%
    18:00 +18°C° 0.1 mm 4 mps 741 mmHg 62%
    19:00 +15°C° 0.1 mm 4 mps 741 mmHg 69%
    20:00 +14°C° 0.3 mm 3 mps 741 mmHg 75%
    21:00 +13°C° 0.3 mm 3 mps 741 mmHg 80%
    22:00 +12°C° 0.3 mm 3 mps 741 mmHg 86%
    23:00 +12°C° 0.1 mm 3 mps 742 mmHg 87%

    25 September, Tuesday

    Time Temperature Precipitation Wind Pressure Humidity
    00:00 +11°C° 0.1 mm 4 mps 742 mmHg 88%
    01:00 +11°C° 0.1 mm 4 mps 742 mmHg 88%
    02:00 +11°C° 0.1 mm 4 mps 742 mmHg 88%
    03:00 +10°C° 0.1 mm 4 mps 743 mmHg 88%
    04:00 +9°C° 0.1 mm 5 mps 743 mmHg 88%
    05:00 +10°C° 0 mm 4 mps 743 mmHg 89%
    06:00 +10°C° 0 mm 4 mps 744 mmHg 89%
    07:00 +8°C° 0 mm 4 mps 744 mmHg 89%
    08:00 +10°C° 0 mm 4 mps 744 mmHg 87%
    09:00 +10°C° 0 mm 3 mps 744 mmHg 85%
    10:00 +11°C° 0 mm 3 mps 745 mmHg 82%
    11:00 +12°C° 0 mm 3 mps 745 mmHg 78%
    12:00 +13°C° 0 mm 3 mps 745 mmHg 75%
    13:00 +14°C° 0 mm 3 mps 745 mmHg 71%
    14:00 +15°C° 0 mm 2 mps 746 mmHg 69%
    15:00 +15°C° 0 mm 2 mps 746 mmHg 67%
    16:00 +16°C° 0 mm 2 mps 746 mmHg 65%
    17:00 +15°C° 0 mm 2 mps 747 mmHg 67%
    18:00 +14°C° 0 mm 2 mps 747 mmHg 70%
    19:00 +13°C° 0 mm 2 mps 747 mmHg 72%
    20:00 +12°C° 0 mm 2 mps 747 mmHg 74%
    21:00 +12°C° 0 mm 2 mps 748 mmHg 75%
    22:00 +10°C° 0 mm 2 mps 748 mmHg 77%
    23:00 +10°C° 0 mm 3 mps 748 mmHg 77%
    Show more